TimeEDT,TemperatureF,Dew PointF,Humidity,Sea Level PressureIn,VisibilityMPH,Wind Direction,Wind SpeedMPH,Gust SpeedMPH,PrecipitationIn,Events,Conditions,WindDirDegrees,DateUTC
12:53 AM,60.1,57.0,90,30.19,10.0,SSE,5.8,-,N/A,,Overcast,160,2013-05-29 04:53:00
1:39 AM,60.8,57.2,88,30.17,10.0,South,5.8,-,N/A,,Overcast,170,2013-05-29 05:39:00
1:53 AM,59.0,59.0,100,30.18,7.0,South,6.9,-,N/A,,Overcast,170,2013-05-29 05:53:00
2:07 AM,59.0,59.0,100,30.17,5.0,South,5.8,-,N/A,,Overcast,180,2013-05-29 06:07:00
2:53 AM,57.9,57.9,100,30.15,2.5,SSE,4.6,-,N/A,,Overcast,150,2013-05-29 06:53:00
3:53 AM,59.0,59.0,100,30.14,3.0,SSE,4.6,-,0.01,Rain,Light Rain,160,2013-05-29 07:53:00
4:53 AM,59.0,59.0,100,30.12,10.0,SSE,5.8,-,0.05,,Overcast,160,2013-05-29 08:53:00
5:53 AM,59.0,59.0,100,30.12,4.0,South,3.5,-,0.16,Rain,Light Rain,170,2013-05-29 09:53:00
6:03 AM,59.0,59.0,100,30.12,1.8,Calm,Calm,-,0.10,Rain,Heavy Rain,0,2013-05-29 10:03:00
6:30 AM,59.0,59.0,100,30.12,2.0,South,5.8,-,0.29,Rain,Light Rain,170,2013-05-29 10:30:00
6:38 AM,59.0,59.0,100,30.12,3.0,South,4.6,-,0.32,Rain,Rain,180,2013-05-29 10:38:00
6:53 AM,59.0,59.0,100,30.12,4.0,South,5.8,-,0.35,Rain,Light Rain,190,2013-05-29 10:53:00
7:22 AM,60.8,60.8,100,30.11,4.0,South,4.6,-,0.03,Rain,Light Rain,180,2013-05-29 11:22:00
7:53 AM,60.1,60.1,100,30.11,2.0,South,5.8,-,0.11,Rain,Rain,170,2013-05-29 11:53:00
8:03 AM,60.8,60.8,100,30.11,6.0,South,4.6,-,0.00,Rain,Light Rain,180,2013-05-29 12:03:00
8:11 AM,60.8,60.8,100,30.11,6.0,South,4.6,-,0.00,,Overcast,180,2013-05-29 12:11:00
8:53 AM,60.1,60.1,100,30.11,6.0,South,5.8,-,0.01,,Overcast,180,2013-05-29 12:53:00
9:53 AM,61.0,61.0,100,30.10,10.0,SSW,3.5,-,0.00,,Overcast,200,2013-05-29 13:53:00
10:22 AM,62.6,62.6,100,30.10,7.0,SSW,3.5,-,N/A,,Overcast,200,2013-05-29 14:22:00
10:46 AM,62.6,60.8,94,30.10,7.0,SSW,4.6,-,N/A,,Overcast,200,2013-05-29 14:46:00
10:53 AM,62.1,61.0,96,30.10,7.0,SSW,4.6,-,N/A,,Overcast,200,2013-05-29 14:53:00
11:53 AM,64.0,63.0,96,30.08,10.0,South,5.8,-,N/A,,Overcast,190,2013-05-29 15:53:00
12:53 PM,64.9,63.0,93,30.04,10.0,South,9.2,-,0.01,,Overcast,170,2013-05-29 16:53:00
1:16 PM,66.2,64.4,94,30.05,10.0,SW,4.6,-,N/A,,Overcast,220,2013-05-29 17:16:00
1:53 PM,68.0,64.0,87,30.06,10.0,Variable,3.5,-,N/A,,Overcast,0,2013-05-29 17:53:00
2:27 PM,69.8,64.4,83,30.05,10.0,Calm,Calm,-,N/A,,Overcast,0,2013-05-29 18:27:00
2:53 PM,71.1,64.0,78,30.04,10.0,Variable,3.5,-,N/A,,Mostly Cloudy,0,2013-05-29 18:53:00
3:00 PM,69.8,64.4,83,30.04,10.0,Calm,Calm,-,N/A,,Scattered Clouds,0,2013-05-29 19:00:00
3:53 PM,72.0,64.9,78,30.02,10.0,ESE,4.6,-,N/A,,Partly Cloudy,110,2013-05-29 19:53:00
4:53 PM,75.0,66.0,73,30.01,10.0,ENE,5.8,-,N/A,,Scattered Clouds,70,2013-05-29 20:53:00
5:29 PM,73.4,66.2,78,30.02,10.0,NNE,5.8,-,N/A,,Mostly Cloudy,20,2013-05-29 21:29:00
5:53 PM,71.1,66.0,84,30.03,10.0,ENE,6.9,-,N/A,,Mostly Cloudy,60,2013-05-29 21:53:00
6:53 PM,68.0,64.0,87,30.01,10.0,East,6.9,-,N/A,,Mostly Cloudy,90,2013-05-29 22:53:00
7:53 PM,66.0,64.9,96,29.99,9.0,Calm,Calm,-,N/A,,Clear,0,2013-05-29 23:53:00
8:53 PM,64.9,64.9,100,30.00,8.0,Calm,Calm,-,N/A,,Clear,0,2013-05-30 00:53:00
9:53 PM,66.9,66.0,97,29.99,8.0,South,4.6,-,N/A,,Partly Cloudy,170,2013-05-30 01:53:00
10:16 PM,66.2,66.2,100,30.03,2.5,West,6.9,-,0.11,Rain-Thunderstorm,Light Thunderstorms and Rain,260,2013-05-30 02:16:00
10:23 PM,68.0,68.0,100,30.02,1.2,SW,9.2,18.4,0.24,Rain-Thunderstorm,Heavy Thunderstorms and Rain,230,2013-05-30 02:23:00
10:30 PM,68.0,68.0,100,30.03,3.0,SW,10.4,18.4,0.25,Rain-Thunderstorm,Light Thunderstorms and Rain,230,2013-05-30 02:30:00
10:53 PM,68.0,68.0,100,30.04,4.0,West,6.9,-,0.29,Rain-Thunderstorm,Light Thunderstorms and Rain,270,2013-05-30 02:53:00
11:03 PM,68.0,66.2,94,30.04,3.0,West,8.1,-,0.04,Rain-Thunderstorm,Rain,260,2013-05-30 03:03:00
11:16 PM,68.0,68.0,100,30.04,5.0,WNW,4.6,-,0.07,Rain-Thunderstorm,Light Rain,290,2013-05-30 03:16:00
11:28 PM,68.0,68.0,100,30.04,4.0,SSW,4.6,-,0.12,Rain-Thunderstorm,Light Thunderstorms and Rain,210,2013-05-30 03:28:00
11:53 PM,66.9,66.9,100,30.03,8.0,SSW,9.2,-,0.16,Rain-Thunderstorm,Light Rain,210,2013-05-30 03:53:00